Syracuse, NY

2:15 PM EST on November 20, 2019 (GMT -0500)
Syracuse Hancock International

Weather History for KSYR - September, 2019

Change the Weather History Date:

Friday, September 13, 2019

  Actual Average Record
Temperature  
Mean Temperature 60 °F 63 °F  
Max Temperature 73 °F 73 °F 96 °F (1931)
Min Temperature 47 °F 53 °F 32 °F (1943)
Degree Days  
Heating Degree Days 4 4  
Month to date heating degree days 23 32  
Since 1 July heating degree days 28 58  
Cooling Degree Days 0 2  
Month to date cooling degree days 19 35  
Year to date cooling degree days 587 548  
Growing Degree Days 10 (Base 50)    
Moisture  
Dew Point 50 °F    
Average Humidity 73    
Maximum Humidity 100    
Minimum Humidity 45    
Precipitation  
Precipitation 0.00 in 0.12 in 2.47 in (1915)
Month to date precipitation 1.91 1.53  
Year to date precipitation 32.55 26.12  
Snow  
Snow 0.00 in 0.00 in 0.00 in (2002)
Month to date snowfall 0.0 0.0  
Since 1 July snowfall T 0.0  
Since 1 September snowfall 0.0 0.0  
Snow Depth 0.00 in    
Sea Level Pressure  
Sea Level Pressure 30.33 in    
Wind  
Wind Speed 8 mph ()    
Max Wind Speed 24 mph    
Max Gust Speed 31 mph    
Visibility 8.7 miles    
Events Fog    
T = Trace of Precipitation, MM = Missing Value Source: Averaged Metar Reports

Daily Weather History Graph

Daily Weather History Graph

Search for Another Location

Airport or City:

Astronomy

Sep. 13, 2019 Rise Set
Actual Time 6:41 AM EDT 7:18 PM EDT
Civil Twilight 6:12 AM EDT 7:47 PM EDT
Nautical Twilight 5:39 AM EDT 8:20 PM EDT
Astronomical Twilight 5:03 AM EDT 8:55 PM EDT
Moon 7:32 PM EDT (9/13) 5:53 AM EDT (9/13)
Length of Visible Light 13h 34m
Length of Day
12h 36m
Full, 100% of the Moon is Illuminated
Sep 13
Full
Sep 14
Full
Sep 21
Last Quarter
Sep 28
New
Oct 5
First Quarter

Hourly Weather History & Observations

Time (EDT) Temp. Dew Point Humidity Pressure Visibility Wind Dir Wind Speed Gust Speed Precip Events Conditions
12:54 AM 55.0 °F 53.1 °F 93% 30.34 in 10.0 mi ENE 6.9 mph - N/A   Scattered Clouds
1:21 AM 54.0 °F 52.0 °F 93% 30.36 in 10.0 mi East 5.8 mph - N/A   Partly Cloudy
1:54 AM 53.1 °F 51.1 °F 93% 30.35 in 10.0 mi East 4.6 mph - N/A   Partly Cloudy
2:08 AM 53.1 °F 51.1 °F 93% 30.36 in 9.0 mi East 3.5 mph - N/A Fog Patches of Fog
2:54 AM 53.1 °F 51.1 °F 93% 30.37 in 3.0 mi East 3.5 mph - N/A   Scattered Clouds
3:54 AM 51.1 °F 48.9 °F 92% 30.36 in 10.0 mi ESE 4.6 mph - N/A Fog Patches of Fog
4:39 AM 50.0 °F 48.9 °F 96% 30.36 in 1.5 mi ESE 4.6 mph - N/A Fog Patches of Fog
4:45 AM 50.0 °F 48.9 °F 96% 30.36 in 1.2 mi East 3.5 mph - N/A   Mostly Cloudy
4:54 AM 48.9 °F 48.0 °F 97% 30.35 in 3.0 mi East 5.8 mph - N/A   Mostly Cloudy
5:23 AM 48.9 °F 46.9 °F 93% 30.36 in 6.0 mi East 6.9 mph - N/A   Scattered Clouds
5:54 AM 48.0 °F 46.0 °F 93% 30.37 in 10.0 mi East 5.8 mph - N/A   Partly Cloudy
6:54 AM 48.0 °F 46.0 °F 93% 30.39 in 10.0 mi East 9.2 mph - N/A   Scattered Clouds
7:54 AM 50.0 °F 46.9 °F 89% 30.40 in 10.0 mi East 9.2 mph - N/A   Scattered Clouds
8:54 AM 55.0 °F 48.9 °F 80% 30.40 in 10.0 mi East 11.5 mph - N/A   Scattered Clouds
9:54 AM 60.1 °F 50.0 °F 69% 30.40 in 10.0 mi East 13.8 mph - N/A   Mostly Cloudy
10:54 AM 66.0 °F 50.0 °F 56% 30.38 in 10.0 mi ESE 18.4 mph - N/A   Mostly Cloudy
11:54 AM 69.1 °F 51.1 °F 53% 30.37 in 10.0 mi ESE 16.1 mph - N/A   Mostly Cloudy
12:54 PM 71.1 °F 50.0 °F 47% 30.34 in 10.0 mi ESE 17.3 mph 24.2 mph N/A   Mostly Cloudy
1:54 PM 72.0 °F 51.1 °F 48% 30.31 in 10.0 mi ESE 13.8 mph - N/A   Mostly Cloudy
2:54 PM 73.9 °F 51.1 °F 45% 30.30 in 10.0 mi SE 12.7 mph - N/A   Mostly Cloudy
3:54 PM 71.1 °F 51.1 °F 49% 30.30 in 10.0 mi SSE 11.5 mph - N/A   Overcast
4:54 PM 70.0 °F 48.9 °F 47% 30.28 in 10.0 mi SSE 19.6 mph 28.8 mph N/A   Overcast
5:54 PM 69.1 °F 50.0 °F 51% 30.27 in 10.0 mi SSE 13.8 mph - N/A   Overcast
6:54 PM 68.0 °F 50.0 °F 52% 30.26 in 10.0 mi SSE 11.5 mph 23.0 mph N/A   Overcast
7:54 PM 66.0 °F 50.0 °F 56% 30.26 in 10.0 mi SSE 13.8 mph 28.8 mph N/A   Overcast
8:54 PM 66.0 °F 50.0 °F 56% 30.24 in 10.0 mi SSE 13.8 mph 24.2 mph N/A   Overcast
9:54 PM 64.9 °F 50.0 °F 58% 30.21 in 10.0 mi SSE 16.1 mph 23.0 mph N/A   Overcast
10:54 PM 64.0 °F 51.1 °F 63% 30.21 in 10.0 mi SSE 11.5 mph 19.6 mph N/A   Mostly Cloudy
11:54 PM 64.0 °F 51.1 °F 63% 30.19 in 10.0 mi SSE 23.0 mph 31.1 mph N/A   Mostly Cloudy